TimeCST,TemperatureF,Dew PointF,Humidity,Sea Level PressureIn,VisibilityMPH,Wind Direction,Wind SpeedMPH,Gust SpeedMPH,PrecipitationIn,Events,Conditions,WindDirDegrees,DateUTC
12:52 AM,25.0,21.0,85,30.22,10.0,NNW,8.1,-,N/A,,Overcast,330,2013-03-02 06:52:00
1:52 AM,25.0,21.0,85,30.22,10.0,North,9.2,-,N/A,,Overcast,350,2013-03-02 07:52:00
2:52 AM,25.0,21.0,85,30.21,10.0,NNW,10.4,-,N/A,,Overcast,340,2013-03-02 08:52:00
3:52 AM,25.0,19.9,81,30.20,10.0,NNW,8.1,-,N/A,,Overcast,340,2013-03-02 09:52:00
4:08 AM,24.8,19.4,80,30.18,10.0,NNW,6.9,-,N/A,,Overcast,340,2013-03-02 10:08:00
4:52 AM,26.1,18.0,71,30.21,10.0,NNW,10.4,-,N/A,,Overcast,340,2013-03-02 10:52:00
5:52 AM,26.1,19.0,75,30.21,10.0,NNW,8.1,-,N/A,,Overcast,340,2013-03-02 11:52:00
6:52 AM,25.0,18.0,75,30.23,10.0,NNW,10.4,-,N/A,,Overcast,340,2013-03-02 12:52:00
7:52 AM,26.1,18.0,71,30.24,10.0,NNW,11.5,-,N/A,,Overcast,340,2013-03-02 13:52:00
8:52 AM,27.0,17.1,66,30.25,10.0,NNW,12.7,-,N/A,,Overcast,340,2013-03-02 14:52:00
9:52 AM,28.0,18.0,66,30.25,10.0,NNW,15.0,-,N/A,,Overcast,340,2013-03-02 15:52:00
10:52 AM,30.0,17.1,59,30.25,10.0,North,13.8,-,N/A,,Clear,350,2013-03-02 16:52:00
11:52 AM,30.9,15.1,52,30.25,10.0,North,13.8,-,N/A,,Clear,360,2013-03-02 17:52:00
12:52 PM,30.9,15.1,52,30.24,10.0,NNW,17.3,21.9,N/A,,Mostly Cloudy,330,2013-03-02 18:52:00
1:52 PM,30.0,16.0,56,30.22,10.0,North,13.8,-,N/A,,Mostly Cloudy,350,2013-03-02 19:52:00
2:52 PM,30.9,15.1,52,30.22,10.0,NNW,15.0,-,N/A,,Clear,330,2013-03-02 20:52:00
3:52 PM,30.0,15.1,54,30.22,10.0,NNW,11.5,-,N/A,,Clear,340,2013-03-02 21:52:00
4:52 PM,28.9,14.0,54,30.22,10.0,NNW,12.7,-,N/A,,Clear,340,2013-03-02 22:52:00
5:52 PM,27.0,12.0,53,30.24,10.0,NNW,9.2,-,N/A,,Clear,340,2013-03-02 23:52:00
6:52 PM,24.1,12.0,60,30.25,10.0,NW,6.9,-,N/A,,Clear,320,2013-03-03 00:52:00
7:52 PM,21.9,15.1,75,30.25,10.0,NW,8.1,-,N/A,,Clear,310,2013-03-03 01:52:00
8:52 PM,19.9,14.0,78,30.25,10.0,WNW,5.8,-,N/A,,Clear,300,2013-03-03 02:52:00
9:52 PM,19.0,14.0,81,30.25,10.0,NW,3.5,-,N/A,,Clear,320,2013-03-03 03:52:00
10:52 PM,19.9,12.9,74,30.24,10.0,Calm,Calm,-,N/A,,Clear,0,2013-03-03 04:52:00
11:52 PM,17.1,12.0,81,30.23,10.0,WNW,3.5,-,N/A,,Clear,290,2013-03-03 05:52:00